Weather reports worldwide

Advertisment
Waldmünchen, Germany (10782): temperature & dewpoint: 29.06.2020 00:00:00 - 05.07.2020 00:00:00 (CEST)Waldmünchen, Germany (10782): temperature 5cm & temperature -5cm: 29.06.2020 00:00:00 - 05.07.2020 00:00:00 (CEST)Waldmünchen, Germany (10782): temperature -20cm & temperature -100cm: 29.06.2020 00:00:00 - 05.07.2020 00:00:00 (CEST)Waldmünchen, Germany (10782): wind speed & gusts: 29.06.2020 00:00:00 - 05.07.2020 00:00:00 (CEST)Waldmünchen, Germany (10782): wind direction: 29.06.2020 00:00:00 - 05.07.2020 00:00:00 (CEST)Waldmünchen, Germany (10782): reduced air pressure: 29.06.2020 00:00:00 - 05.07.2020 00:00:00 (CEST)Waldmünchen, Germany (10782): visibility: 29.06.2020 00:00:00 - 05.07.2020 00:00:00 (CEST)Waldmünchen, Germany (10782): sunshine duration: 29.06.2020 00:00:00 - 05.07.2020 00:00:00 (CEST)Waldmünchen, Germany (10782): precipitation: 29.06.2020 00:00:00 - 05.07.2020 00:00:00 (CEST)
Date & Time tt [°C] td [°C] tt 5cm [°C] tt -5cm [°C] tt -20cm [°C] tt -100cm [°C] ff [km/h] ff [kn] fx [km/h] fx [kn] dd ppp [hPa] vv [km] sd [min] rr [mm]
05.07.2020 00:00:00 15,6 11,6 13,5 17,2 20,4 15,7 5 3 8 4 NNE 1017,9 65 0 0,0
04.07.2020 23:00:00 16,5 11,4 14,0 18,2 20,7 15,7 2 1 8 4 E 1017,5 66 0 0,0
04.07.2020 22:00:00 17,0 11,7 15,0 19,4 20,9 15,7 3 2 11 6 ESE 1017,4 65 0 0,0
04.07.2020 21:00:00 19,8 11,5 18,1 20,8 21,1 15,7 9 5 26 14 SW 1016,7 63 41 0,0
04.07.2020 20:00:00 21,8 11,2 21,6 22,3 21,0 15,7 16 9 32 17 SW 1015,9 69 59 0,0
04.07.2020 19:00:00 22,8 10,5 23,4 23,6 20,8 15,7 19 11 32 17 SSW 1016,0 75 60 0,0
04.07.2020 18:00:00 23,0 10,1 24,0 24,8 20,5 15,7 23 12 43 23 SW 1016,3 75 56 0,0
04.07.2020 17:00:00 22,2 9,9 22,4 25,6 20,0 15,7 24 13 37 20 SSW 1016,6 71 47 0,0
04.07.2020 16:00:00 23,5 10,2 26,4 26,5 19,5 15,7 24 13 36 19 SW 1016,7 75 55 0,0
04.07.2020 15:00:00 23,0 11,4 26,5 26,1 18,9 15,7 23 12 36 20 WSW 1017,2 75 46 0,0
04.07.2020 14:00:00 21,1 9,6 22,5 25,5 18,5 15,7 20 11 34 19 SW 1018,0 75 39 0,0
04.07.2020 13:00:00 21,0 10,0 23,6 24,2 18,0 15,7 21 11 32 17 SW 1018,5 75 31 0,0
04.07.2020 12:00:00 20,5 8,8 23,3 24,4 17,5 15,7 19 11 31 17 SW 1018,9 49 47 0,0
04.07.2020 11:00:00 20,4 9,5 22,8 23,5 17,0 15,7 18 10 30 16 SSW 1019,1 56 60 0,0
04.07.2020 10:00:00 18,5 10,8 20,7 22,5 16,7 15,7 7 4 17 9 SW 1019,8 75 60 0,0
04.07.2020 09:00:00 16,3 10,6 19,4 21,2 16,5 15,7 4 2 7 4 WNW 1020,1 55 60 0,0
04.07.2020 08:00:00 14,3 10,8 14,4 17,5 16,6 15,7 0 0 4 2 N 1020,3 36 60 0,0
04.07.2020 07:00:00 10,8 8,4 10,3 13,9 16,8 15,7 0 0 4 2 N 1021,0 52 60 0,0
04.07.2020 06:00:00 8,4 8,0 7,9 11,5 17,2 15,7 0 0 5 3 N 1021,4 36 9 0,0
04.07.2020 05:00:00 8,0 7,5 6,9 11,7 17,6 15,7 3 1 5 3 ENE 1021,3 28 0 0,0
04.07.2020 04:00:00 8,6 8,3 7,3 12,2 18,0 15,7 0 0 5 3 N 1021,2 35 0 0,0
04.07.2020 03:00:00 9,2 8,7 7,9 12,8 18,4 15,7 2 1 5 3 NE 1021,3 43 0 0,0
04.07.2020 02:00:00 9,3 8,7 8,3 13,4 18,8 15,7 3 1 7 4 NE 1021,4 37 0 0,0
04.07.2020 01:00:00 10,4 9,4 8,7 14,1 19,2 15,6 2 1 9 5 NNE 1020,9 53 0 0,0
04.07.2020 00:00:00 11,0 9,7 9,4 14,9 19,7 15,6 5 3 8 4 ENE 1020,8 60 0 0,0
03.07.2020 23:00:00 11,9 10,0 10,2 15,8 20,0 15,6 6 3 11 6 ENE 1020,3 65 0 0,0
03.07.2020 22:00:00 13,9 9,4 11,2 17,0 20,3 15,6 5 3 9 5 NE 1019,5 75 0 0,0
03.07.2020 21:00:00 16,4 9,4 14,1 18,7 20,5 15,6 4 2 19 10 NW 1018,2 75 48 0,0
03.07.2020 20:00:00 20,0 8,8 19,8 19,9 20,6 15,6 10 6 22 12 W 1017,2 75 56 0,0
03.07.2020 19:00:00 19,9 8,5 20,6 21,1 20,6 15,6 11 6 25 14 W 1017,0 65 30 0,0
03.07.2020 18:00:00 19,4 8,7 19,4 22,2 20,4 15,6 16 9 29 16 W 1017,1 75 36 0,0
03.07.2020 17:00:00 19,8 8,7 20,7 23,5 20,1 15,6 13 7 34 18 WNW 1016,9 62 45 0,0
03.07.2020 16:00:00 20,7 10,1 24,0 24,0 19,8 15,6 20 11 32 17 W 1016,9 65 57 0,0
03.07.2020 15:00:00 20,9 10,6 24,8 22,9 19,5 15,6 17 9 32 17 WSW 1016,7 60 39 0,0
03.07.2020 14:00:00 19,0 9,4 20,8 23,0 19,2 15,6 19 10 34 18 WSW 1017,4 75 24 0,0
03.07.2020 13:00:00 18,5 9,3 19,2 22,8 18,9 15,6 21 11 36 20 W 1017,4 75 37 0,0
03.07.2020 12:00:00 18,9 9,8 22,0 23,5 18,6 15,6 19 10 35 19 W 1017,4 66 55 0,0
03.07.2020 11:00:00 17,4 10,0 18,8 22,1 18,3 15,6 19 10 31 17 W 1017,6 72 43 0,0
03.07.2020 10:00:00 16,6 11,3 18,1 20,7 18,2 15,6 18 10 29 16 W 1017,7 54 48 0,0
03.07.2020 09:00:00 15,6 11,2 18,2 19,4 18,2 15,6 16 9 25 14 WSW 1017,5 62 38 0,0
03.07.2020 08:00:00 14,3 11,5 14,2 17,0 18,3 15,5 16 9 25 14 W 1017,3 55 29 0,0
03.07.2020 07:00:00 12,9 11,9 12,3 15,1 18,6 15,5 8 4 13 7 SW 1017,1 50 0 0,0
03.07.2020 06:00:00 12,9 12,5 12,0 15,1 18,9 15,5 2 1 7 4 W 1016,5 35 0 0,0
03.07.2020 05:00:00 13,2 12,5 12,0 15,3 19,2 15,5 3 1 7 4 ENE 1015,8 36 0 0,0
03.07.2020 04:00:00 13,4 12,5 12,3 16,0 19,5 15,5 2 1 6 4 NNW 1015,2 33 0 0,0
03.07.2020 03:00:00 14,6 13,1 13,2 16,8 19,8 15,5 4 2 14 8 SW 1014,9 43 0 0,0
03.07.2020 02:00:00 16,0 14,2 14,9 17,5 20,0 15,5 9 5 14 7 SW 1014,0 61 0 0,0
03.07.2020 01:00:00 16,2 14,8 15,1 17,9 20,3 15,5 5 3 17 9 SW 1013,8 34 0 0,0
03.07.2020 00:00:00 16,7 15,4 15,9 18,5 20,5 15,5 10 6 18 10 SW 1013,4 43 0 0,0
02.07.2020 23:00:00 17,4 16,2 16,7 19,1 20,7 15,5 5 3 9 5 WSW 1013,2 40 0 0,0
02.07.2020 22:00:00 17,3 15,6 16,4 19,6 20,9 15,5 2 1 14 7 ENE 1012,9 52 0 0,0
02.07.2020 21:00:00 18,1 16,2 17,4 20,6 21,0 15,5 13 7 18 10 SW 1012,3 65 0 0,7
02.07.2020 20:00:00 19,5 16,2 18,9 21,4 21,0 15,5 8 4 18 10 SSW 1011,4 70 31 0,0
02.07.2020 19:00:00 21,0 16,1 21,7 22,2 20,9 15,5 11 6 18 10 S 1011,2 75 32 0,0
02.07.2020 18:00:00 20,8 14,9 20,9 22,9 20,6 15,4 11 6 20 11 SW 1011,2 72 30 0,0
02.07.2020 17:00:00 21,2 16,8 24,0 23,6 20,5 15,4 10 5 18 10 SSW 1011,2 69 51 0,0
02.07.2020 16:00:00 19,0 16,5 21,0 21,8 20,5 15,4 10 5 16 8 SE 1012,1 40 2 0,0
02.07.2020 15:00:00 17,7 16,7 18,2 20,1 20,6 15,4 9 5 14 7 SE 1012,7 39 0 2,5
02.07.2020 14:00:00 17,3 15,8 16,7 20,5 20,6 15,4 2 1 30 16 SE 1012,9 8 0 3,0
02.07.2020 13:00:00 20,4 14,9 20,2 22,9 20,4 15,4 15 8 29 16 SW 1011,4 69 13 0,0
02.07.2020 12:00:00 22,7 15,4 26,2 26,1 20,1 15,4 14 8 24 13 SSW 1010,9 75 56 0,0
02.07.2020 11:00:00 20,4 16,0 21,0 22,6 19,8 15,4 14 7 22 12 SW 1011,4 63 22 0,0
02.07.2020 10:00:00 20,3 16,7 22,3 24,0 19,7 15,4 13 7 22 12 S 1011,3 66 48 0,0
02.07.2020 09:00:00 18,6 16,9 20,7 20,2 19,7 15,4 7 4 12 6 S 1011,7 55 8 0,0
02.07.2020 08:00:00 18,1 15,2 18,5 20,4 19,8 15,4 2 1 7 4 NE 1011,5 63 29 0,0
02.07.2020 07:00:00 16,3 14,5 17,2 18,4 20,1 15,4 3 1 6 3 S 1011,5 40 45 0,0
02.07.2020 06:00:00 15,3 14,6 14,8 17,2 20,4 15,4 6 3 11 6 ESE 1011,6 58 2 0,0
02.07.2020 05:00:00 15,5 15,0 15,1 17,7 20,7 15,4 5 3 9 5 E 1011,6 34 0 0,8
02.07.2020 04:00:00 15,9 15,5 15,7 18,2 21,0 15,4 13 7 21 12 W 1011,5 35 0 0,0
02.07.2020 03:00:00 16,5 15,6 16,0 18,7 21,4 15,4 6 3 13 7 SE 1010,9 42 0 2,1
02.07.2020 02:00:00 17,1 14,5 15,7 19,2 21,8 15,4 7 4 39 21 SE 1012,1 15 0 4,8
02.07.2020 01:00:00 18,0 15,4 16,9 20,0 22,1 15,4 4 2 19 11 S 1011,1 75 0 0,0
02.07.2020 00:00:00 19,4 15,3 17,4 21,0 22,4 15,4 13 7 27 15 S 1009,6 43 0 0,1
01.07.2020 23:00:00 21,5 16,2 20,7 21,6 22,7 15,4 16 9 26 14 SE 1008,4 59 0 0,0
01.07.2020 22:00:00 21,6 15,1 19,1 22,9 22,9 15,4 4 2 17 9 NE 1007,9 65 0 0,0
01.07.2020 21:00:00 24,8 14,4 23,4 24,4 23,0 15,4 13 7 19 10 S 1007,1 75 56 0,0
01.07.2020 20:00:00 25,6 14,8 25,6 25,6 23,0 15,4 11 6 22 12 S 1007,1 75 43 0,0
01.07.2020 19:00:00 25,9 13,8 24,8 27,2 22,7 15,4 13 7 25 14 S 1007,0 75 44 0,0
01.07.2020 18:00:00 27,6 13,9 28,4 28,9 22,3 15,4 18 10 31 17 SSW 1006,6 75 60 0,0
01.07.2020 17:00:00 27,4 13,8 29,2 29,7 21,7 15,4 18 10 32 18 SW 1007,0 63 59 0,0
01.07.2020 16:00:00 26,6 15,0 30,0 30,2 21,0 15,4 16 9 33 18 S 1007,5 65 51 0,0
01.07.2020 15:00:00 26,2 14,7 29,4 30,9 20,3 15,4 23 12 36 19 SW 1008,0 75 60 0,0
01.07.2020 14:00:00 26,0 14,1 29,4 30,7 19,5 15,4 19 10 36 19 SSW 1008,7 70 60 0,0
01.07.2020 13:00:00 24,8 13,7 27,8 29,8 18,8 15,4 25 13 34 19 SW 1009,2 60 60 0,0
01.07.2020 12:00:00 24,5 14,3 27,7 28,7 18,1 15,4 14 7 29 16 SSW 1009,6 75 60 0,0
01.07.2020 11:00:00 22,7 13,3 25,1 26,5 17,6 15,4 18 10 28 15 SSW 1010,4 75 60 0,0
01.07.2020 10:00:00 20,9 12,6 23,5 24,0 17,2 15,4 15 8 25 14 SW 1011,2 50 60 0,0
01.07.2020 09:00:00 19,4 12,7 21,4 22,5 17,0 15,4 10 6 16 9 SW 1011,7 75 60 0,0
01.07.2020 08:00:00 16,4 12,8 18,0 19,3 17,0 15,4 0 0 4 2 N 1012,2 52 60 0,0
01.07.2020 07:00:00 14,2 11,3 12,9 15,6 17,2 15,4 0 0 3 2 N 1012,8 48 60 0,0
01.07.2020 06:00:00 11,3 10,7 10,2 13,1 17,6 15,4 0 0 4 2 N 1013,3 35 11 0,0
01.07.2020 05:00:00 11,4 10,4 9,6 13,3 17,9 15,4 2 1 4 2 NE 1013,2 50 0 0,0
01.07.2020 04:00:00 11,2 9,8 9,3 13,7 18,2 15,4 4 2 7 4 N 1013,3 63 0 0,0
01.07.2020 03:00:00 12,3 10,5 10,0 14,2 18,6 15,4 5 3 5 3 NNE 1013,1 63 0 0,0
01.07.2020 02:00:00 12,5 10,6 10,4 14,7 19,0 15,4 5 3 6 4 N 1013,4 57 0 0,0
01.07.2020 01:00:00 12,6 11,0 10,4 15,4 19,3 15,4 2 1 5 3 NNE 1013,3 64 0 0,0
01.07.2020 00:00:00 13,4 11,3 11,0 16,2 19,7 15,4 3 2 6 3 NNE 1013,0 75 0 0,0
30.06.2020 23:00:00 14,5 11,4 11,8 17,2 20,0 15,4 3 2 5 3 NE 1012,6 65 0 0,0
30.06.2020 22:00:00 16,5 11,6 13,0 18,5 20,2 15,4 3 2 10 5 WSW 1012,0 71 0 0,0
30.06.2020 21:00:00 18,4 12,0 16,6 19,8 20,4 15,4 8 4 25 13 SW 1011,2 75 28 0,0
30.06.2020 20:00:00 20,6 11,5 20,6 21,3 20,4 15,4 16 9 30 16 SW 1010,5 66 35 0,0
30.06.2020 19:00:00 21,2 11,0 21,7 22,4 20,2 15,4 21 11 32 18 SW 1010,3 72 26 0,0
30.06.2020 18:00:00 22,0 11,7 24,0 23,3 20,0 15,4 21 11 39 21 WSW 1010,3 59 16 0,0
30.06.2020 17:00:00 21,2 11,1 22,3 24,1 19,6 15,4 19 11 39 21 SW 1010,7 71 28 0,0
30.06.2020 16:00:00 22,0 11,1 25,4 24,9 19,1 15,4 22 12 39 21 WSW 1010,8 73 47 0,0
30.06.2020 15:00:00 21,6 10,2 23,6 25,3 18,5 15,4 26 14 44 24 WSW 1011,0 75 59 0,0
30.06.2020 14:00:00 20,7 9,8 22,9 24,8 18,1 15,3 27 15 42 23 SW 1011,5 67 55 0,0
30.06.2020 13:00:00 20,2 9,1 22,9 23,4 17,7 15,3 27 15 42 23 SW 1012,0 50 47 0,0
30.06.2020 12:00:00 20,3 10,0 23,1 22,1 17,4 15,3 28 15 42 23 SW 1012,5 62 48 0,0
30.06.2020 11:00:00 18,8 9,1 20,6 21,2 17,1 15,3 29 16 49 26 SW 1013,1 60 52 0,0
30.06.2020 10:00:00 17,5 9,7 19,0 19,7 16,9 15,3 21 11 33 18 SW 1013,7 53 58 0,0
30.06.2020 09:00:00 16,5 10,1 17,9 18,9 16,9 15,3 19 10 25 13 SSW 1013,8 53 51 0,0
30.06.2020 08:00:00 14,8 11,8 14,2 17,1 16,9 15,3 13 7 21 11 SSW 1014,2 46 51 0,0
30.06.2020 07:00:00 13,6 11,9 13,7 15,0 17,1 15,3 3 2 7 4 NNE 1014,4 34 58 0,0
30.06.2020 06:00:00 11,3 10,8 10,1 13,0 17,4 15,3 4 2 10 5 NNE 1014,7 20 11 0,0
30.06.2020 05:00:00 11,8 11,3 9,7 13,5 17,7 15,3 2 1 5 3 NNE 1014,2 31 0 0,0
30.06.2020 04:00:00 11,6 11,2 10,9 13,8 18,0 15,3 3 2 8 4 N 1014,0 24 0 0,0
30.06.2020 03:00:00 11,9 11,4 11,4 14,3 18,2 15,3 3 2 8 5 N 1013,9 23 0 0,0
30.06.2020 02:00:00 12,2 11,6 10,9 15,0 18,5 15,3 3 2 6 4 ENE 1013,7 28 0 0,0
30.06.2020 01:00:00 13,1 12,4 12,7 15,4 18,7 15,3 4 2 8 5 ENE 1013,7 35 0 0,1
30.06.2020 00:00:00 12,9 12,2 12,7 15,6 19,0 15,2 4 2 7 4 NNE 1013,8 34 0 0,0
29.06.2020 23:00:00 12,7 11,5 11,0 15,7 19,3 15,2 5 3 8 4 NE 1013,8 55 0 0,0
29.06.2020 22:00:00 13,8 11,7 11,7 16,9 19,5 15,2 4 2 7 4 NNE 1013,6 67 0 0,0
29.06.2020 21:00:00 17,6 12,2 16,4 18,5 19,6 15,2 5 3 8 5 WNW 1012,5 75 14 0,0
29.06.2020 20:00:00 17,7 13,6 17,3 18,9 19,7 15,2 6 3 21 11 SE 1012,0 75 6 0,0
29.06.2020 19:00:00 20,4 9,8 21,1 19,6 19,6 15,2 11 6 27 15 SW 1011,6 75 23 0,0
29.06.2020 18:00:00 21,1 10,2 22,5 20,3 19,5 15,2 11 6 37 20 WSW 1011,6 59 38 0,0
29.06.2020 17:00:00 20,3 9,1 21,8 21,3 19,2 15,2 25 14 39 21 SW 1011,9 65 60 0,0
29.06.2020 16:00:00 19,8 12,7 22,7 21,6 19,0 15,1 14 7 26 14 SW 1012,4 68 39 0,0
29.06.2020 15:00:00 17,3 13,6 18,4 20,1 18,9 15,1 13 7 24 13 SW 1013,3 49 2 0,0
29.06.2020 14:00:00 16,1 13,0 17,2 19,2 18,8 15,1 13 7 22 12 SSW 1013,9 50 1 0,0
29.06.2020 13:00:00 15,2 13,4 16,6 18,1 18,9 15,1 11 6 19 10 SSW 1014,3 41 0 0,0
29.06.2020 12:00:00 14,1 13,1 14,3 17,4 19,0 15,1 11 6 21 11 SW 1015,1 14 0 1,2
29.06.2020 11:00:00 14,3 13,0 14,5 17,8 19,1 15,1 8 4 14 8 SW 1014,6 43 0 0,0
29.06.2020 10:00:00 13,5 12,6 13,8 16,8 19,3 15,1 5 3 14 7 E 1014,5 45 0 0,5
29.06.2020 09:00:00 13,7 12,7 13,6 17,0 19,5 15,1 7 4 12 6 SW 1014,4 43 0 0,5
29.06.2020 08:00:00 13,9 13,0 14,2 17,1 19,7 15,0 5 3 11 6 SSW 1014,5 27 0 0,0
29.06.2020 07:00:00 13,7 13,1 13,9 16,8 20,0 15,0 4 2 6 3 S 1014,3 31 0 0,3
29.06.2020 06:00:00 13,4 12,7 13,3 16,8 20,3 15,0 3 2 9 5 E 1014,8 25 0 0,9
29.06.2020 05:00:00 13,6 12,9 13,5 17,2 20,7 15,0 5 3 12 7 SE 1015,1 36 0 1,6
29.06.2020 04:00:00 14,2 13,3 13,9 17,9 21,0 15,0 3 2 7 4 S 1015,3 17 0 1,6
29.06.2020 03:00:00 14,8 14,0 14,8 18,6 21,2 15,0 4 2 9 5 NNE 1015,8 18 0 1,6
29.06.2020 02:00:00 16,3 15,7 16,2 19,2 21,5 15,0 2 1 6 3 S 1015,4 12 0 0,3
29.06.2020 01:00:00 16,4 16,1 16,5 19,5 21,9 15,0 3 2 9 5 SSW 1015,4 8 0 0,0
29.06.2020 00:00:00 16,5 16,0 16,3 20,0 22,2 14,9 4 2 10 6 NNE 1014,9 15 0 0,2

tt = temperature
td = dewpoint
tt 5cm = temperature 5cm
tt -5cm = temperature -5cm
tt -20cm = temperature -20cm
tt -100cm = temperature -100cm
ff = wind speed
fx = gusts
dd = wind direction
ppp = reduced air pressure
vv = visibility
sd = sunshine duration
rr = precipitation

Next stations